Theta_e
309 308 308 307 307 308 309 310 311 311 312 312 312 311 310 310 311 315 323 331 343 353 353 354 345 348 352 350 349 352 358 355 345 353 356 351 351 347 345 347 347 346 348 347 347
311 309 308 307 307 308 309 310 311 312 313 313 313 312 311 310 314 320 322 336 342 353 355 352 354 350 355 358 351 355 357 356 345 344 354 352 350 350 348 348 349 350 347 348 347
313 311 310 308 307 308 309 310 311 313 313 314 313 313 310 311 324 324 324 341 345 354 354 345 349 355 359 359 355 356 360 361 348 342 349 352 351 348 348 350 349 351 351 349 347
316 313 311 309 308 308 309 310 311 313 314 314 314 312 311 315 339 337 327 340 344 353 354 354 354 360 361 357 357 361 360 358 353 344 351 352 350 350 349 348 346 348 349 348 348
317 314 312 309 308 308 308 310 311 313 315 312 312 311 314 322 319 326 332 340 343 346 350 355 358 359 360 358 358 363 362 357 353 348 345 349 352 351 349 345 346 348 349 348 348
318 316 313 311 309 308 308 310 312 313 316 313 312 313 322 325 329 332 331 338 345 347 348 348 350 348 359 359 361 361 360 357 358 354 349 349 350 349 348 344 347 348 348 347 347
317 318 315 313 310 308 308 310 312 313 316 315 313 316 323 324 331 329 333 344 343 346 346 346 345 334 356 361 357 359 359 362 359 358 353 348 352 352 347 344 348 348 347 346 346
318 317 316 315 311 309 308 310 312 313 317 317 315 320 322 328 332 327 334 339 339 336 338 337 338 333 336 352 357 354 351 362 361 359 356 348 355 350 345 345 346 346 347 347 345
318 317 317 316 313 309 309 311 314 315 318 317 319 321 323 326 332 331 335 339 336 336 329 338 336 329 334 357 356 356 358 361 364 359 357 353 355 348 344 345 344 344 343 345 340
319 318 317 317 314 310 309 313 317 318 320 319 324 323 324 325 327 329 331 336 337 321 320 320 325 330 331 352 362 361 359 358 361 360 358 360 354 348 345 344 345 343 342 341 339
319 318 318 317 316 310 310 315 314 314 323 317 321 324 323 324 325 326 323 325 321 319 320 318 318 320 329 338 348 349 356 357 357 358 358 358 355 349 345 344 344 343 342 340 339
319 319 318 318 317 309 312 311 317 317 316 316 318 322 322 322 319 319 322 321 319 320 318 316 317 318 320 326 332 331 347 351 346 356 359 357 358 351 347 345 344 343 343 341 338
319 319 318 318 314 313 311 315 316 314 315 316 317 319 320 318 318 319 318 317 318 317 317 317 317 317 320 321 319 318 321 321 335 348 348 339 343 358 351 346 345 343 344 341 339
319 318 318 318 312 311 312 314 314 315 314 317 319 319 318 316 317 318 318 317 316 317 315 314 316 320 322 321 318 320 319 320 319 329 336 330 327 327 356 351 344 345 347 346 341
319 319 318 317 316 310 312 314 315 316 315 322 318 318 314 315 317 318 317 317 316 317 315 316 320 320 320 321 319 320 318 318 319 315 315 316 315 314 341 355 345 346 348 348 344
319 319 318 316 315 315 312 313 315 315 318 320 316 316 315 315 318 318 318 316 316 317 315 314 318 319 320 319 319 317 317 314 310 310 313 313 315 314 353 355 352 352 352 350 347
319 318 317 317 315 314 313 311 313 316 317 320 316 315 314 314 316 317 316 316 314 315 318 316 317 317 318 319 317 314 312 314 317 314 315 312 333 354 352 355 356 357 353 347 347
319 318 318 317 317 312 313 311 316 314 316 317 316 313 315 314 314 317 315 316 317 317 316 314 318 319 319 319 318 316 312 314 320 317 316 336 347 345 338 356 355 352 351 350 349
319 318 319 316 317 313 309 312 312 315 318 319 317 315 315 315 315 317 317 315 317 316 318 318 320 319 320 319 317 317 315 312 311 311 337 342 346 340 331 341 354 353 352 351 349
318 318 320 317 312 313 310 313 315 314 317 318 320 315 313 315 316 317 318 317 318 316 313 315 320 318 318 317 316 314 312 312 308 315 348 335 333 337 327 332 336 334 334 337 341
318 314 316 313 311 306 312 311 315 315 316 316 317 317 315 316 315 316 317 317 318 319 314 313 314 318 316 317 316 314 316 310 308 307 323 331 328 330 329 324 327 327 326 329 334
314 315 317 315 307 303 308 311 314 316 318 317 315 314 315 315 316 317 317 318 318 319 319 315 311 315 318 317 316 317 317 311 313 316 315 319 321 324 328 326 325 324 325 325 331
316 315 322 312 308 307 309 317 319 320 320 321 320 320 318 315 317 317 319 318 319 318 318 317 312 315 318 317 318 319 319 312 308 308 314 319 323 323 322 324 322 321 319 322 325
315 321 318 311 307 313 316 317 320 321 321 320 320 318 318 316 312 318 319 317 317 322 326 317 312 314 317 319 319 323 321 317 313 314 315 319 326 325 323 321 320 320 322 322 326
317 321 319 322 320 317 315 318 321 322 321 320 318 318 317 317 314 316 317 318 318 322 316 313 318 320 319 321 322 322 321 320 320 316 318 321 324 323 323 322 322 323 322 321 321
323 322 321 321 320 317 319 322 323 323 320 320 318 318 315 316 315 317 316 316 320 319 317 314 321 321 322 321 322 321 319 319 318 318 319 322 324 320 320 319 322 322 321 321 320
323 324 320 322 320 322 323 325 325 322 319 319 319 318 318 317 316 316 315 313 316 319 317 317 317 318 322 319 320 320 319 324 323 321 323 325 322 320 321 321 322 321 320 320 319
Wind_Speed
17 16 16 16 15 14 13 14 14 15 16 16 16 15 16 16 14 6 3 7 11 16 12 8 8 8 8 3 3 1 3 1 5 6 9 10 6 12 5 13 4 4 7 15 26
18 17 17 16 16 14 13 14 16 18 17 16 15 14 15 17 10 6 3 8 21 15 9 9 1 7 4 3 2 3 2 3 4 6 15 14 17 10 8 13 5 11 17 27 27
20 19 18 17 16 15 14 15 17 19 17 14 13 11 13 11 2 4 5 14 18 16 11 9 11 4 4 3 3 1 3 3 6 5 15 16 11 5 18 6 15 22 21 22 23
22 21 19 17 17 16 15 16 18 18 14 13 10 9 11 2 2 1 10 15 20 21 15 6 5 7 10 6 4 3 4 6 2 9 11 15 11 9 8 7 17 20 22 21 17
24 23 20 18 17 16 15 15 17 16 13 11 8 7 2 1 6 2 12 14 19 20 15 11 7 6 7 5 0 1 6 3 10 6 14 15 9 9 5 17 18 21 20 19 17
25 25 22 20 19 17 15 15 15 14 10 9 6 6 2 1 4 3 11 12 12 17 10 10 8 7 11 7 4 7 5 1 8 8 7 12 9 6 9 17 19 19 18 18 18
27 26 25 23 21 18 15 15 15 12 7 6 4 3 1 6 3 5 9 9 15 11 4 11 3 1 12 5 11 2 1 4 2 3 5 13 4 6 17 17 19 19 17 16 16
29 28 26 25 22 19 16 16 15 8 4 3 2 1 5 4 2 9 11 10 11 13 16 19 9 7 7 5 5 2 4 3 2 5 3 5 4 9 15 18 15 18 17 17 13
30 30 28 27 24 21 17 16 9 1 2 2 1 1 6 4 4 10 11 7 5 10 11 16 3 3 1 4 3 2 3 3 1 6 5 3 5 13 14 16 14 15 15 15 10
32 32 31 28 25 22 18 12 1 1 2 2 0 2 3 3 5 7 9 15 5 5 5 5 4 2 3 3 5 5 3 4 6 7 5 4 6 16 16 15 16 12 12 9 9
34 33 32 29 27 22 16 2 4 4 1 6 2 3 3 7 5 5 4 4 2 7 2 2 4 5 9 11 7 3 5 6 4 5 5 7 9 18 16 12 14 14 11 8 9
35 34 33 29 28 15 7 4 5 3 7 6 6 6 11 4 2 5 4 2 3 1 2 6 4 7 6 8 7 6 2 4 1 7 5 6 7 16 18 19 17 16 13 10 5
35 35 33 28 20 3 8 1 7 12 2 8 5 4 5 9 6 5 6 3 2 2 1 5 7 8 4 4 6 4 6 3 3 4 2 5 4 8 19 12 12 13 10 8 9
36 36 32 28 4 12 6 7 22 5 4 6 4 6 4 6 2 6 9 6 2 2 4 5 6 3 3 5 3 3 2 2 5 4 4 4 4 4 16 18 15 11 8 8 8
37 36 29 21 14 5 7 19 6 4 2 2 4 1 3 7 3 1 6 4 4 2 5 6 3 3 5 1 3 5 4 3 2 4 3 2 3 7 5 11 15 12 13 7 8
39 35 29 10 8 10 11 19 3 6 5 3 4 5 5 1 2 2 3 5 3 3 2 6 2 1 4 2 2 3 5 7 5 3 3 4 5 3 3 9 6 9 13 15 13
40 34 22 10 4 2 15 4 5 4 3 2 4 3 3 3 2 4 4 2 4 4 2 7 4 6 2 5 5 6 7 3 3 3 5 5 5 2 13 4 15 16 14 13 13
41 29 9 12 4 3 1 5 3 4 5 4 1 3 7 5 6 3 4 2 2 5 3 4 3 1 1 3 4 3 7 5 5 3 3 7 6 7 8 9 14 14 10 9 10
41 11 7 4 10 7 5 3 7 6 4 5 5 4 2 4 6 3 2 7 2 4 6 4 3 4 1 2 5 3 2 4 6 3 5 3 2 3 11 7 10 10 12 10 5
24 10 5 1 14 6 5 5 3 3 5 4 0 2 4 5 6 5 3 2 3 2 4 5 3 2 5 5 4 4 5 2 4 3 4 3 3 2 7 6 10 9 6 3 1
7 4 10 12 4 5 4 6 5 4 6 4 1 3 7 6 7 4 0 3 0 3 5 3 4 5 4 5 3 5 4 7 6 4 5 4 2 6 6 7 10 11 9 7 8
7 3 6 9 4 1 2 5 4 5 2 7 5 10 8 6 4 4 4 1 5 1 4 3 5 2 2 4 4 4 3 4 5 1 2 5 2 5 6 10 13 12 12 9 10
2 3 4 3 2 3 5 4 4 5 5 3 4 6 3 6 7 3 5 4 1 3 5 3 4 3 7 7 7 7 4 4 4 3 1 5 3 5 5 8 8 10 8 8 8
2 4 4 4 2 3 2 5 4 6 7 6 7 6 4 3 7 6 4 6 5 5 9 8 4 5 6 5 3 3 5 3 4 4 4 1 9 4 4 6 7 8 8 7 8
3 1 2 3 4 5 5 4 5 4 1 4 1 3 9 5 6 5 4 3 7 8 5 5 4 2 2 2 2 1 4 3 1 4 5 7 7 4 4 6 6 6 7 8 7
2 3 4 2 4 3 5 4 4 7 2 6 5 2 8 8 8 9 9 3 3 4 3 3 2 2 4 6 7 4 9 10 7 6 9 13 6 4 3 6 7 7 6 6 6
5 3 2 4 6 3 3 6 7 5 9 6 3 11 9 3 8 9 5 5 9 7 3 4 5 3 2 4 4 4 6 3 6 7 10 8 5 3 3 5 4 5 6 5 6
Wind_Direction
355 351 348 348 350 347 345 342 337 335 330 326 325 332 333 332 329 309 252 107 133 111 111 108 83 49 106 83 67 302 64 115 163 131 147 156 126 165 79 133 136 158 139 144 144
354 348 344 343 346 344 342 339 335 331 327 320 320 327 329 331 329 263 156 127 130 119 141 132 195 25 70 64 39 64 78 223 240 143 150 158 158 143 132 150 89 103 114 140 144
355 349 344 340 341 340 338 338 337 333 329 320 317 323 324 333 320 242 157 140 139 153 137 105 88 73 79 322 13 30 197 305 175 137 153 148 150 111 139 171 153 145 147 149 154
2 352 345 339 339 338 335 337 339 338 335 328 322 322 325 355 134 80 152 146 150 142 147 106 38 38 344 347 325 345 292 272 58 128 132 149 127 136 169 150 151 150 153 153 165
0 356 348 342 339 337 334 335 340 340 338 336 330 328 340 67 253 262 160 150 154 164 183 175 151 128 177 253 330 26 346 322 74 107 147 140 152 149 174 137 140 149 156 167 178
1 358 351 345 341 337 332 333 338 337 332 336 339 341 38 332 296 265 177 166 182 187 183 187 187 151 186 213 198 185 200 277 95 74 104 132 154 117 147 141 144 154 168 177 182
1 359 354 347 343 338 332 330 332 329 322 327 336 355 359 231 295 211 199 195 202 198 218 222 218 263 165 156 229 227 53 72 129 98 92 108 27 157 154 155 151 166 174 184 193
0 358 355 350 344 339 333 328 322 309 305 323 331 6 245 322 273 204 207 245 244 249 251 270 277 229 175 186 115 115 45 117 233 148 195 96 197 165 161 162 170 168 184 189 187
358 355 354 351 345 339 335 328 321 267 249 301 73 81 278 336 227 242 221 233 289 283 271 259 249 237 50 91 41 27 164 188 196 196 143 122 133 175 175 171 172 176 180 194 189
356 353 351 349 344 338 339 340 70 114 135 122 300 2 280 237 218 231 240 243 263 296 4 53 48 71 54 84 220 218 201 206 198 193 163 150 175 169 182 179 183 183 189 186 181
354 351 347 345 341 335 340 347 21 3 135 195 174 266 263 324 283 242 231 168 231 63 26 17 74 214 231 221 238 215 201 204 194 183 133 191 170 180 183 187 188 195 197 194 197
353 348 343 341 336 331 358 66 104 337 310 237 241 265 268 268 275 264 178 102 35 289 6 7 278 246 218 211 212 220 177 178 171 167 145 170 204 187 185 198 191 192 201 205 167
350 345 341 338 331 356 338 339 331 338 136 299 209 195 228 139 225 213 131 141 190 311 285 175 254 326 351 100 106 18 101 44 189 109 12 112 290 183 203 191 193 201 201 206 187
347 343 340 337 342 335 299 351 333 164 62 276 240 260 138 139 249 224 179 152 85 222 189 227 292 264 60 64 105 90 201 92 76 94 200 126 258 274 194 197 191 181 181 193 174
345 341 338 333 305 296 325 336 358 95 355 217 225 177 101 135 223 218 171 79 186 219 75 265 353 81 67 25 104 211 88 44 39 97 50 327 86 275 114 196 196 175 167 133 116
340 338 330 320 288 275 322 330 115 46 261 324 170 167 107 81 192 216 90 56 99 108 321 242 308 23 176 89 15 58 65 53 49 76 12 268 160 307 342 219 157 149 140 132 119
336 333 312 269 243 299 327 25 51 146 309 252 214 149 144 160 238 168 156 90 141 94 342 352 333 309 50 40 13 75 55 348 4 21 216 319 55 240 332 194 151 134 128 137 152
336 330 305 256 210 254 8 56 172 240 257 314 166 85 173 161 240 169 85 113 112 105 98 130 338 320 318 145 181 53 134 153 191 177 280 15 359 342 345 61 95 96 103 137 179
337 334 305 320 202 189 79 102 205 213 318 345 359 124 226 224 185 121 119 178 204 156 137 138 280 316 51 81 118 182 63 176 103 15 68 318 335 357 42 47 105 127 154 192 229
337 334 326 340 147 122 82 218 244 225 343 346 298 53 215 228 150 133 162 243 130 104 154 192 91 1 302 42 35 106 156 50 12 128 106 323 38 331 15 16 87 98 108 149 138
355 27 358 143 145 52 154 221 249 273 44 345 255 264 224 210 178 109 174 343 156 54 77 100 86 290 28 17 320 354 22 51 109 96 142 121 313 359 354 8 58 49 46 44 51
355 53 59 154 50 33 183 200 299 308 318 240 201 214 219 133 73 104 128 319 348 74 50 343 122 84 154 312 285 98 82 107 110 221 73 118 265 9 62 72 69 57 46 41 52
26 270 9 197 98 310 294 290 245 240 231 231 275 246 113 162 101 103 105 326 132 96 149 190 17 37 357 351 3 44 6 96 101 85 23 114 198 83 25 59 64 66 30 24 38
51 17 330 40 70 173 253 270 265 245 237 198 230 209 96 33 23 144 111 27 0 83 81 88 82 151 179 202 198 354 349 71 101 103 148 190 134 110 65 80 67 65 55 55 48
35 305 198 322 333 350 338 288 285 295 222 212 146 244 138 94 62 99 98 75 23 360 51 92 106 75 87 337 93 211 12 14 91 159 123 178 120 133 98 85 75 80 62 47 26
60 32 358 284 295 309 357 296 295 306 18 344 120 97 117 148 169 168 128 99 162 23 60 16 125 102 7 357 13 40 38 68 53 100 72 113 97 143 110 113 68 52 42 28 9
350 1 101 298 336 39 307 294 293 260 5 23 214 91 59 323 142 131 105 125 144 137 120 84 116 83 277 346 29 17 354 69 85 57 124 139 162 135 54 84 70 51 34 5 345